Location: Del Amo
(33.8464°N, 118.2104°W)
Time: 08:57:00
(UTC+00:00)

Vanguard 3 - Pass Details

Date: 16 September 2024
Orbit: 507 x 3223 km, 33.3° (Epoch: 09 October)

Event Time Altitude Azimuth Distance (km) Brightness Sun altitude
Rises 17:17:43 0° 273° (W) 7,144 11.6 42.9°
Reaches altitude 10° 17:22:30 10° 273° (W) 6,154 11.3 43.7°
Maximum altitude 17:42:16 87° 187° (S) 2,736 10.7 47.0°
Drops below altitude 10° 17:55:29 10° 100° (E) 4,352 11.6 49.0°
Sets 17:58:15 0° 100° (E) 5,049 11.7 49.4°
